Torna al catalogo

HULIANWANG DIGUI-173

AttivoScienzaLEO
NORAD 69576·PAYLOAD·🇨🇳 China

Lanciato Jun 17, 2026 da Wenchang Space Launch Site

Loading…

Prossimi Passaggi (prossime 24 ore)

TLE

AggiornatoSource: Space-Track

Epoca: Sep 14, 2026, 10:39 UTC

1 69576U 26137E   26257.44409696 -.00000093  00000-0  66368-4 0  9992
2 69576  50.0022 275.7457 0000191 330.7756  29.3106 13.29326081 12204

Traccia HULIANWANG DIGUI-173 in tempo reale con AllMySat

Download on the App Store